Time,TemperatureF,DewpointF,PressureIn,WindDirection,WindDirectionDegrees,WindSpeedMPH,WindSpeedGustMPH,Humidity,HourlyPrecipIn,Conditions,Clouds,dailyrainin,SoftwareType,DateUTC
2013-07-07 00:08:00,66.9,65.0,29.98,WNW,300,0.0,0.0,92,0.00,,,0.00,weatherlink.com 1.10,2013-07-07 04:08:00,
2013-07-07 00:23:00,66.5,65.0,29.98,WNW,300,0.0,0.0,93,0.00,,,0.00,weatherlink.com 1.10,2013-07-07 04:23:00,
2013-07-07 00:38:00,66.0,64.0,29.98,WNW,300,0.0,0.0,93,0.00,,,0.00,weatherlink.com 1.10,2013-07-07 04:38:00,
2013-07-07 00:53:00,65.8,64.0,29.98,WNW,300,0.0,0.0,94,0.00,,,0.00,weatherlink.com 1.10,2013-07-07 04:53:00,
2013-07-07 01:08:00,65.6,64.0,29.98,WNW,300,0.0,0.0,94,0.00,,,0.00,weatherlink.com 1.10,2013-07-07 05:08:00,
2013-07-07 01:23:00,65.4,64.0,29.98,WNW,300,0.0,0.0,94,0.00,,,0.00,weatherlink.com 1.10,2013-07-07 05:23:00,
2013-07-07 01:38:00,65.2,64.0,29.98,WNW,300,0.0,0.0,94,0.00,,,0.00,weatherlink.com 1.10,2013-07-07 05:38:00,
2013-07-07 01:53:00,64.9,64.0,29.98,WNW,300,0.0,0.0,95,0.00,,,0.00,weatherlink.com 1.10,2013-07-07 05:53:00,
2013-07-07 02:08:00,64.9,64.0,29.98,WNW,300,0.0,0.0,96,0.00,,,0.00,weatherlink.com 1.10,2013-07-07 06:08:00,
2013-07-07 02:23:00,64.7,63.0,29.97,WNW,300,0.0,0.0,95,0.00,,,0.00,weatherlink.com 1.10,2013-07-07 06:23:00,
2013-07-07 02:38:00,64.5,63.0,29.97,WNW,300,0.0,0.0,95,0.00,,,0.00,weatherlink.com 1.10,2013-07-07 06:38:00,
2013-07-07 02:53:00,64.3,63.0,29.97,WNW,300,0.0,0.0,96,0.00,,,0.00,weatherlink.com 1.10,2013-07-07 06:53:00,
2013-07-07 03:09:00,64.3,63.0,29.97,WNW,300,0.0,0.0,96,0.00,,,0.00,weatherlink.com 1.10,2013-07-07 07:09:00,
2013-07-07 03:24:00,64.4,63.0,29.97,WNW,300,0.0,0.0,96,0.00,,,0.00,weatherlink.com 1.10,2013-07-07 07:24:00,
2013-07-07 03:39:00,64.2,63.0,29.97,WNW,300,0.0,0.0,96,0.00,,,0.00,weatherlink.com 1.10,2013-07-07 07:39:00,
2013-07-07 03:54:00,64.1,63.0,29.97,WNW,300,0.0,0.0,96,0.00,,,0.00,weatherlink.com 1.10,2013-07-07 07:54:00,
2013-07-07 04:09:00,64.0,63.0,29.97,WNW,300,0.0,0.0,97,0.00,,,0.00,weatherlink.com 1.10,2013-07-07 08:09:00,
2013-07-07 04:24:00,64.1,63.0,29.97,WNW,300,0.0,0.0,97,0.00,,,0.00,weatherlink.com 1.10,2013-07-07 08:24:00,
2013-07-07 04:40:00,63.7,63.0,29.97,WNW,300,0.0,0.0,96,0.00,,,0.00,weatherlink.com 1.10,2013-07-07 08:40:00,
2013-07-07 04:54:00,63.7,63.0,29.96,WNW,300,0.0,0.0,97,0.00,,,0.00,weatherlink.com 1.10,2013-07-07 08:54:00,
2013-07-07 05:09:00,64.0,63.0,29.97,WNW,300,0.0,0.0,97,0.00,,,0.00,weatherlink.com 1.10,2013-07-07 09:09:00,
2013-07-07 05:24:00,64.2,63.0,29.97,WNW,300,0.0,0.0,97,0.00,,,0.00,weatherlink.com 1.10,2013-07-07 09:24:00,
2013-07-07 05:39:00,64.4,64.0,29.97,WNW,300,0.0,0.0,97,0.00,,,0.00,weatherlink.com 1.10,2013-07-07 09:39:00,
2013-07-07 05:54:00,64.6,64.0,29.97,WNW,300,0.0,1.0,97,0.00,,,0.00,weatherlink.com 1.10,2013-07-07 09:54:00,
2013-07-07 06:09:00,64.9,64.0,29.97,WNW,300,0.0,1.0,97,0.00,,,0.00,weatherlink.com 1.10,2013-07-07 10:09:00,
2013-07-07 06:24:00,65.0,64.0,29.97,WNW,300,0.0,0.0,97,0.00,,,0.00,weatherlink.com 1.10,2013-07-07 10:24:00,
2013-07-07 06:39:00,65.4,65.0,29.97,WNW,300,0.0,1.0,97,0.00,,,0.00,weatherlink.com 1.10,2013-07-07 10:39:00,
2013-07-07 06:54:00,65.7,65.0,29.98,WNW,300,0.0,1.0,97,0.00,,,0.00,weatherlink.com 1.10,2013-07-07 10:54:00,
2013-07-07 07:09:00,65.9,65.0,29.98,WNW,300,0.0,0.0,96,0.00,,,0.00,weatherlink.com 1.10,2013-07-07 11:09:00,
2013-07-07 07:24:00,66.4,65.0,29.98,WNW,300,0.0,0.0,96,0.00,,,0.00,weatherlink.com 1.10,2013-07-07 11:24:00,
2013-07-07 07:39:00,67.0,66.0,29.98,WNW,300,0.0,0.0,95,0.00,,,0.00,weatherlink.com 1.10,2013-07-07 11:39:00,
2013-07-07 07:54:00,67.6,66.0,29.98,WNW,300,0.0,1.0,93,0.00,,,0.00,weatherlink.com 1.10,2013-07-07 11:54:00,
2013-07-07 08:09:00,68.5,66.0,29.99,WNW,300,0.0,1.0,92,0.00,,,0.00,weatherlink.com 1.10,2013-07-07 12:09:00,
2013-07-07 08:24:00,69.5,67.0,29.99,WNW,300,0.0,0.0,91,0.00,,,0.00,weatherlink.com 1.10,2013-07-07 12:24:00,
2013-07-07 08:39:00,70.9,67.0,29.99,WNW,300,0.0,0.0,87,0.00,,,0.00,weatherlink.com 1.10,2013-07-07 12:39:00,
2013-07-07 08:54:00,72.1,68.0,29.99,WNW,300,0.0,0.0,86,0.00,,,0.00,weatherlink.com 1.10,2013-07-07 12:54:00,
2013-07-07 09:09:00,73.4,68.0,29.98,WNW,300,0.0,0.0,83,0.00,,,0.00,weatherlink.com 1.10,2013-07-07 13:09:00,
2013-07-07 09:24:00,74.7,68.0,29.98,WNW,300,0.0,0.0,80,0.00,,,0.00,weatherlink.com 1.10,2013-07-07 13:24:00,
2013-07-07 09:39:00,76.7,68.0,29.97,WNW,300,0.0,1.0,74,0.00,,,0.00,weatherlink.com 1.10,2013-07-07 13:39:00,
2013-07-07 09:54:00,78.1,66.0,29.97,WNW,300,0.0,1.0,67,0.00,,,0.00,weatherlink.com 1.10,2013-07-07 13:54:00,
2013-07-07 10:09:00,78.3,69.0,29.96,WNW,300,0.0,0.0,72,0.00,,,0.00,weatherlink.com 1.10,2013-07-07 14:09:00,
2013-07-07 10:24:00,78.1,67.0,29.97,WNW,300,0.0,0.0,69,0.00,,,0.00,weatherlink.com 1.10,2013-07-07 14:24:00,
2013-07-07 10:39:00,77.5,68.0,29.97,WNW,300,0.0,1.0,73,0.00,,,0.00,weatherlink.com 1.10,2013-07-07 14:39:00,
2013-07-07 10:54:00,78.3,67.0,29.97,SSE,165,0.0,4.0,68,0.00,,,0.00,weatherlink.com 1.10,2013-07-07 14:54:00,
2013-07-07 11:09:00,79.2,68.0,29.97,WSW,248,0.0,1.0,68,0.00,,,0.00,weatherlink.com 1.10,2013-07-07 15:09:00,
2013-07-07 11:24:00,79.5,68.0,29.97,NW,313,0.0,1.0,67,0.00,,,0.00,weatherlink.com 1.10,2013-07-07 15:24:00,
2013-07-07 11:39:00,80.1,69.0,29.96,SSW,198,0.0,4.0,68,0.00,,,0.00,weatherlink.com 1.10,2013-07-07 15:39:00,
2013-07-07 11:55:00,80.7,67.0,29.96,WSW,257,0.0,5.0,64,0.00,,,0.00,weatherlink.com 1.10,2013-07-07 15:55:00,
2013-07-07 12:09:00,80.8,68.0,29.96,NW,307,0.0,4.0,66,0.00,,,0.00,weatherlink.com 1.10,2013-07-07 16:09:00,
2013-07-07 12:24:00,81.4,67.0,29.96,West,269,1.0,4.0,61,0.00,,,0.00,weatherlink.com 1.10,2013-07-07 16:24:00,
2013-07-07 12:40:00,82.8,67.0,29.96,West,271,0.0,4.0,59,0.00,,,0.00,weatherlink.com 1.10,2013-07-07 16:40:00,
2013-07-07 12:55:00,83.7,65.0,29.96,WNW,290,5.0,5.0,54,0.00,,,0.00,weatherlink.com 1.10,2013-07-07 16:55:00,
2013-07-07 13:10:00,83.1,65.0,29.95,West,281,1.0,6.0,55,0.00,,,0.00,weatherlink.com 1.10,2013-07-07 17:10:00,
2013-07-07 13:25:00,83.0,66.0,29.95,West,277,0.0,1.0,57,0.00,,,0.00,weatherlink.com 1.10,2013-07-07 17:25:00,
2013-07-07 13:40:00,83.2,66.0,29.94,West,277,0.0,1.0,57,0.00,,,0.00,weatherlink.com 1.10,2013-07-07 17:40:00,
2013-07-07 13:55:00,84.0,67.0,29.94,West,263,0.0,5.0,56,0.00,,,0.00,weatherlink.com 1.10,2013-07-07 17:55:00,
2013-07-07 14:10:00,84.6,66.0,29.94,West,263,0.0,1.0,54,0.00,,,0.00,weatherlink.com 1.10,2013-07-07 18:10:00,
2013-07-07 14:25:00,84.3,66.0,29.93,WNW,298,5.0,6.0,55,0.00,,,0.00,weatherlink.com 1.10,2013-07-07 18:25:00,
2013-07-07 14:40:00,85.2,67.0,29.92,West,261,4.0,6.0,55,0.00,,,0.00,weatherlink.com 1.10,2013-07-07 18:40:00,
2013-07-07 14:55:00,85.9,66.0,29.92,WNW,288,0.0,6.0,51,0.00,,,0.00,weatherlink.com 1.10,2013-07-07 18:55:00,
2013-07-07 15:10:00,86.3,67.0,29.91,NW,315,5.0,7.0,52,0.00,,,0.00,weatherlink.com 1.10,2013-07-07 19:10:00,
2013-07-07 15:25:00,86.6,68.0,29.90,West,279,4.0,4.0,54,0.00,,,0.00,weatherlink.com 1.10,2013-07-07 19:25:00,
2013-07-07 15:40:00,86.3,67.0,29.89,WNW,285,3.0,5.0,52,0.00,,,0.00,weatherlink.com 1.10,2013-07-07 19:40:00,
2013-07-07 15:55:00,85.5,68.0,29.89,WNW,294,0.0,5.0,57,0.00,,,0.00,weatherlink.com 1.10,2013-07-07 19:55:00,
2013-07-07 16:10:00,84.5,70.0,29.89,NW,311,0.0,1.0,61,0.00,,,0.00,weatherlink.com 1.10,2013-07-07 20:10:00,
2013-07-07 16:25:00,82.7,71.0,29.89,NW,311,0.0,0.0,67,0.00,,,0.00,weatherlink.com 1.10,2013-07-07 20:25:00,
2013-07-07 16:40:00,81.3,71.0,29.89,NW,311,0.0,0.0,72,0.00,,,0.00,weatherlink.com 1.10,2013-07-07 20:40:00,
2013-07-07 16:55:00,80.6,72.0,29.89,NW,323,0.0,1.0,74,0.00,,,0.00,weatherlink.com 1.10,2013-07-07 20:55:00,
2013-07-07 17:10:00,81.3,71.0,29.88,NNE,32,0.0,1.0,71,0.00,,,0.00,weatherlink.com 1.10,2013-07-07 21:10:00,
2013-07-07 17:25:00,83.1,69.0,29.86,NNE,30,0.0,1.0,63,0.00,,,0.00,weatherlink.com 1.10,2013-07-07 21:25:00,
2013-07-07 17:40:00,84.1,69.0,29.88,NNE,30,0.0,1.0,61,0.00,,,0.00,weatherlink.com 1.10,2013-07-07 21:40:00,
2013-07-07 17:55:00,84.6,71.0,29.85,NE,39,0.0,2.0,63,0.00,,,0.00,weatherlink.com 1.10,2013-07-07 21:55:00,
2013-07-07 18:10:00,84.7,70.0,29.85,NE,39,0.0,1.0,62,0.00,,,0.00,weatherlink.com 1.10,2013-07-07 22:10:00,
2013-07-07 18:25:00,85.8,70.0,29.86,NE,39,0.0,1.0,60,0.00,,,0.00,weatherlink.com 1.10,2013-07-07 22:25:00,
2013-07-07 18:40:00,84.1,72.0,29.86,NE,39,0.0,0.0,66,0.00,,,0.00,weatherlink.com 1.10,2013-07-07 22:40:00,
2013-07-07 18:55:00,81.4,73.0,29.87,NE,39,0.0,0.0,75,0.00,,,0.00,weatherlink.com 1.10,2013-07-07 22:55:00,
2013-07-07 19:12:00,80.2,74.0,29.88,NE,39,0.0,0.0,80,0.00,,,0.00,weatherlink.com 1.10,2013-07-07 23:12:00,
2013-07-07 19:25:00,79.3,73.0,29.87,NE,39,0.0,0.0,81,0.00,,,0.00,weatherlink.com 1.10,2013-07-07 23:25:00,
2013-07-07 19:40:00,78.8,73.0,29.88,NE,39,0.0,0.0,82,0.00,,,0.00,weatherlink.com 1.10,2013-07-07 23:40:00,
2013-07-07 19:55:00,78.2,72.0,29.88,NE,39,0.0,0.0,82,0.00,,,0.00,weatherlink.com 1.10,2013-07-07 23:55:00,
2013-07-07 20:10:00,77.9,73.0,29.89,NE,39,0.0,1.0,85,0.00,,,0.00,weatherlink.com 1.10,2013-07-08 00:10:00,
2013-07-07 20:25:00,77.5,73.0,29.88,NE,39,0.0,0.0,87,0.00,,,0.00,weatherlink.com 1.10,2013-07-08 00:25:00,
2013-07-07 20:40:00,76.9,74.0,29.89,NW,321,0.0,1.0,89,0.07,,,0.07,weatherlink.com 1.10,2013-07-08 00:40:00,
2013-07-07 20:55:00,75.6,73.0,29.89,NW,321,0.0,1.0,91,0.07,,,0.07,weatherlink.com 1.10,2013-07-08 00:55:00,
2013-07-07 21:10:00,74.8,73.0,29.90,NW,321,0.0,0.0,93,0.07,,,0.07,weatherlink.com 1.10,2013-07-08 01:10:00,
2013-07-07 21:25:00,74.3,73.0,29.90,NW,321,0.0,1.0,95,0.07,,,0.07,weatherlink.com 1.10,2013-07-08 01:25:00,
2013-07-07 21:40:00,73.7,72.0,29.91,NW,321,0.0,0.0,94,0.00,,,0.07,weatherlink.com 1.10,2013-07-08 01:40:00,
2013-07-07 21:55:00,73.4,72.0,29.91,NW,321,0.0,0.0,95,0.00,,,0.07,weatherlink.com 1.10,2013-07-08 01:55:00,
2013-07-07 22:10:00,73.1,72.0,29.91,NW,321,0.0,1.0,96,0.00,,,0.07,weatherlink.com 1.10,2013-07-08 02:10:00,
2013-07-07 22:25:00,72.8,72.0,29.90,NW,321,0.0,0.0,96,0.00,,,0.07,weatherlink.com 1.10,2013-07-08 02:25:00,
2013-07-07 22:40:00,72.4,71.0,29.91,NW,321,0.0,0.0,96,0.00,,,0.07,weatherlink.com 1.10,2013-07-08 02:40:00,
2013-07-07 22:55:00,72.2,71.0,29.91,NW,321,0.0,1.0,96,0.00,,,0.07,weatherlink.com 1.10,2013-07-08 02:55:00,
2013-07-07 23:10:00,72.2,71.0,29.92,NW,321,0.0,0.0,97,0.00,,,0.07,weatherlink.com 1.10,2013-07-08 03:10:00,
2013-07-07 23:25:00,72.1,71.0,29.92,NW,321,0.0,0.0,97,0.00,,,0.07,weatherlink.com 1.10,2013-07-08 03:25:00,
2013-07-07 23:40:00,72.0,71.0,29.91,NE,36,0.0,3.0,97,0.02,,,0.09,weatherlink.com 1.10,2013-07-08 03:40:00,
2013-07-07 23:55:00,72.1,71.0,29.90,NE,36,0.0,2.0,97,0.02,,,0.09,weatherlink.com 1.10,2013-07-08 03:55:00,